TimePDT,TemperatureF,Dew PointF,Humidity,Sea Level PressureIn,VisibilityMPH,Wind Direction,Wind SpeedMPH,Gust SpeedMPH,PrecipitationIn,Events,Conditions,WindDirDegrees,DateUTC
12:52 AM,68.0,64.4,88,29.87,8.0,Calm,Calm,-,0.01,Rain,Light Rain,0,2014-08-13 07:52:00
12:55 AM,68.0,64.0,87,29.84,7.0,WSW,3.5,-,0.01,Rain,Light Rain,250,2014-08-13 07:55:00
1:55 AM,68.0,64.0,87,29.83,9.0,Calm,Calm,-,0.00,,Mostly Cloudy,0,2014-08-13 08:55:00
2:55 AM,68.0,64.0,87,29.83,6.0,WNW,3.5,-,0.01,,Partly Cloudy,290,2014-08-13 09:55:00
3:48 AM,68.0,64.0,87,29.87,8.0,ENE,3.5,-,N/A,,Mostly Cloudy,70,2014-08-13 10:48:00
3:55 AM,68.0,64.0,87,29.84,8.0,East,4.6,-,N/A,,Mostly Cloudy,80,2014-08-13 10:55:00
4:34 AM,68.0,63.0,84,29.87,10.0,SE,5.8,-,N/A,,Mostly Cloudy,130,2014-08-13 11:34:00
8:55 AM,70.0,61.0,73,29.89,10.0,SE,6.9,-,N/A,,Clear,140,2014-08-13 15:55:00
9:55 AM,73.0,61.0,66,29.90,10.0,ESE,3.5,-,N/A,,Clear,110,2014-08-13 16:55:00
10:55 AM,75.0,62.1,64,29.90,10.0,SSE,4.6,-,N/A,,Scattered Clouds,160,2014-08-13 17:55:00
11:55 AM,75.0,60.1,60,29.90,10.0,SSW,5.8,-,N/A,,Scattered Clouds,200,2014-08-13 18:55:00
12:55 PM,78.1,60.1,54,29.90,10.0,SE,6.9,-,N/A,,Partly Cloudy,140,2014-08-13 19:55:00
1:55 PM,78.1,59.0,52,29.90,10.0,WSW,4.6,-,N/A,,Overcast,250,2014-08-13 20:55:00
2:55 PM,82.0,57.9,44,29.88,10.0,Variable,4.6,-,N/A,,Clear,0,2014-08-13 21:55:00
3:55 PM,84.0,55.0,37,29.86,10.0,Calm,Calm,-,N/A,,Clear,0,2014-08-13 22:55:00
4:55 PM,82.0,55.0,39,29.84,10.0,SW,6.9,-,N/A,,Clear,230,2014-08-13 23:55:00
5:55 PM,75.9,57.0,52,29.86,10.0,West,10.4,-,N/A,,Partly Cloudy,280,2014-08-14 00:55:00
9:55 PM,75.9,55.9,50,29.88,10.0,NW,9.2,-,N/A,,Clear,320,2014-08-14 04:55:00
10:55 PM,73.9,55.9,53,29.88,10.0,NNW,12.7,-,N/A,,Mostly Cloudy,330,2014-08-14 05:55:00
11:55 PM,73.0,55.0,53,29.88,10.0,NW,12.7,-,N/A,,Partly Cloudy,310,2014-08-14 06:55:00